Weather Roundup
Issued by NWS Springfield, MO

Home | Current Version | Previous Version | Graphics & Text | Print | Product List | Glossary On
Versions: 1 2 3 4 5 6 7 8 9 10 11 12 13 14 15 16 17 18 19 20 21 22 23 24 25 26 27 28 29 30 31 32 33 34 35 36 37 38 39 40 41 42 43 44 45 46 47 48 49 50
000
NZUS99 KSGF 220007
HRRSGF

HOURLY WEATHER
NATIONAL WEATHER SERVICE SPRINGFIELD MO
700 PM CDT THU SEP 21 2017

......SGF CWA......

CITY           SKY/WX    TMP DP  RH WIND       PRES   REMARKS
SPRINGFIELD    CLEAR     86  67  52 S10       29.93S
6HR MIN TEMP:  86; 6HR MAX TEMP:  93;

JOPLIN         CLEAR     84  72  67 S10       29.90S
6HR MIN TEMP:  84; 6HR MAX TEMP:  90;

WEST PLAINS    CLEAR     85  66  53 S6        30.00R
6HR MIN TEMP:  85; 6HR MAX TEMP:  92;

ROLLA          PTCLDY    85  67  54 SE8       29.97R
6HR MIN TEMP:  85; 6HR MAX TEMP:  94;

OSAGE BEACH    CLEAR     85  69  58 SE3       29.94R
BRANSON        PTCLDY    84  66  54 S9        29.97S

......SURROUNDING SGF CWA......

CITY           SKY/WX    TMP DP  RH WIND       PRES   REMARKS
CHANUTE        CLEAR     86  72  62 SE14G23   29.86R HX  92
COFFEYVILLE    CLEAR     86  72  62 S10       29.85R HX  92
EMPORIA        CLEAR     86  72  62 S16G23    29.81R HX  92
GROVE OK       CLEAR     86  72  62 SE7       29.91S HX  92
ROGERS AR      CLEAR     83  70  64 SE7       29.96S
SILOAM SPRINGS CLEAR     83  70  64 S9        29.94S
HARRISON AR    CLEAR     83  67  58 S9        29.98S
NEAR YELLVILLE CLEAR     86  67  52 VRB3      29.95S

......KANSAS AND MISSOURI......

CITY           SKY/WX    TMP DP  RH WIND       PRES   REMARKS
KANSAS CTY INT PTCLDY    85  73  67 S16       29.84S HX  91
DOWNTOWN KC    CLEAR     89  73  59 S14G22    29.83S HX  97
COLUMBIA       CLEAR     86  71  60 SE6       29.93S HX  91
SEDALIA        CLEAR     86  72  62 SE8       29.91S HX  92
ST JOSEPH      CLEAR     87  74  64 S17G28    29.81S HX  95
ST LOUIS       MOCLDY    87  69  54 SE14      29.95F HX  91
SPIRIT OF STL  CLOUDY    88  71  57 SE6       29.92F HX  94
KIRKSVILLE     CLEAR     82  67  60 S9        29.91R
WICHITA        PTCLDY    90  72  55 S24G31    29.77R HX  97
TOPEKA         CLEAR     88  75  65 S18G28    29.80R HX  97
OLATHE         CLEAR     84  74  71 S14       29.86R HX  91

......TENNESSEE......

CITY           SKY/WX    TMP DP  RH WIND       PRES   REMARKS
MEMPHIS        PTCLDY    85  69  58 S5        29.97F
NASHVILLE      PTCLDY    76  71  85 CALM      30.02S

......ARKANSAS.......

CITY           SKY/WX    TMP DP  RH WIND       PRES   REMARKS
FAYETTEVILLE   CLEAR     82  72  71 SE5       29.95S
FT SMITH       CLEAR     88  70  55 SE5       29.89S HX  93
LITTLE ROCK    PTCLDY    85  72  65 S5        29.95R HX  91

......OKLAHOMA.......

CITY           SKY/WX    TMP DP  RH WIND       PRES   REMARKS
TULSA          PTCLDY    90  69  50 S18G24    29.84R HX  94
PONCA CITY     CLEAR     89  71  55 S17G26    29.81R HX  95
MCALESTER      CLEAR     88  70  55 S7        29.89S HX  93
OKLAHOMA CITY  PTCLDY    87  69  54 S16       29.84R HX  91

......IOWA............

CITY           SKY/WX    TMP DP  RH WIND       PRES   REMARKS
DES MOINES     PTCLDY    86  71  60 SE14      29.81S HX  91
QUAD CITIES    CLOUDY    82  69  64 SE7       29.93S

......ILLINOIS........

CITY           SKY/WX    TMP DP  RH WIND       PRES   REMARKS
QUINCY         CLOUDY    84  70  62 SE9       29.94R
CHICAGO        PTCLDY    88  67  49 S9        29.98R HX  91




USA.gov is the U.S. government's official web portal to all federal, state and local government web resources and services.